Showing default

FLOCK 4G 4, 62659

Orbit data source: Space-Track

FLOCK 4G 4, 62659 is a payload satellite owned by Planet (US) in SSO that was launched on Tue, 14 Jan 2025 UTC via an FALCON 9 launch vehicle from the Air Force Western Test Range (AFWTR). Payload-class satellites include a variety of spacecraft equipped with specific instruments for various scientific and technological missions. These include communications satellites like Starlink; space stations such as the ISS; scientific satellites like the Hubble; Earth observation satellites from companies like Planet Labs, Umbra, and HawkEye 360; GPS; miniature CubeSats for education and research; and military/defense satellites.

Loading next visibility...
Identifier
62659, 2025-009BC
Orbit
SSO
Country
Flag of USUS
Related business
Manufacturer
Planet
Mission
Operational Commercial Imaging
Bus & Motor
CUBESAT 3U, Unknown motor
Mass
5.7 kg wet, 5.7 kg dry
Launch date (UTC)
2025-01-14 (1 year ago)
Launch vehicle
FALCON 9
Launch site
Air Force Western Test Range (AFWTR)
Object type
Payload
Rocket body
Debris
Shape & HBR
Box + 2 Pan, 1.0 m
Radar Cross Section
0.072 m², Medium (>0.1 m² and < 1m²)

Expand to show TLE details & history
Last TLE update: 8 hours ago

TLE from 8 hours ago
0 FLOCK 4G 4
1 62659U 25009BC  26034.20479627  .00012019  00000-0  47053-3 0  9991
2 62659  97.4062 116.5608 0003835  83.5834 276.5841 15.25953005116056
Epoch: 2026-02-03T04:54Z
TLE epoch observation values (Epoch: 2026-02-03T04:54:54.397Z)
Latitude
-0.00004°
Longitude
-90.55493°
Altitude
490.723 km
Speed
7.62 km/s
True Right ascension
07h 46m 14s
True Declination
0° 00' 00"
Sunlit
Object was in full shadow at epoch
Visualization orbit readout
Latitude
Unknown
Longitude
Unknown
Altitude
Unknown
Speed
Unknown
Apparent Right ascension
Unknown
Apparent Declination
Unknown
Sunlit
N/A
Visualization observer readout
Local Sidereal Time
14:58:30
Azimuth
Unknown
Elevation
Unknown
Doppler factor
Unknown
Orbital elements
Apogee altitude
487.515 km
Perigee altitude
482.251 km
Semi-major axis
6,863.02 km
Eccentricity
0.00038
Inclination
97.4062°
RAAN
116.5608°
Arg. of periapsis
83.5834°
True anomaly
276.54044°
Mean anomaly
276.5841°
Eccentric anomaly
276.56227°
Mean motion
3.81742 °/min
Orbital period
94.3 mins
BSTAR
0.00047053
Loading maneuver chart data...
Computing Atmospheric mass density...
Loading historical data...
Loading historical data...
Loading historical data...
Loading historical data...
Loading historical data...
Loading historical data...
Loading historical data...

Documentation

Showing up to 5 results
|